This is the latest recevied weather packets stored in our database for station/object K4GDX. If no packets are shown the sender has not sent any weather packets the latest 10 day(s).
| Time | Temp. | Humidity | Pressure | Rain* | Wind** | Luminosity | Snow |
|---|---|---|---|---|---|---|---|
| 1777582552 | 29.44° C | 65% | 1007.1 hPa | 0 mm | - | 200 W/m² | - |
| 1777582247 | 30° C | 62% | 1007.1 hPa | 0 mm | - | 174 W/m² | - |
| 1777581947 | 30° C | 61% | 1007.3 hPa | 0 mm | - | 167 W/m² | - |
| 1777581645 | 30.56° C | 59% | 1007.3 hPa | 0 mm | - | 299 W/m² | - |
| 1777581344 | 30.56° C | 59% | 1007.3 hPa | 0 mm | - | 336 W/m² | - |
| 1777581045 | 31.11° C | 58% | 1007.4 hPa | 0 mm | - | 788 W/m² | - |
| 1777580746 | 31.11° C | 59% | 1007.4 hPa | 0 mm | - | 756 W/m² | - |
| 1777580445 | 31.11° C | 60% | 1007.4 hPa | 0 mm | - | 726 W/m² | - |
| 1777580130 | 30.56° C | 61% | 1007.6 hPa | 0 mm | - | 745 W/m² | - |
| 1777579829 | 30.56° C | 61% | 1007.7 hPa | 0 mm | - | 729 W/m² | - |
| 1777579529 | 30.56° C | 61% | 1007.7 hPa | 0 mm | - | 752 W/m² | - |
| 1777579228 | 30.56° C | 65% | 1007.7 hPa | 0 mm | - | 707 W/m² | - |
| 1777578926 | 30.56° C | 66% | 1007.7 hPa | 0 mm | - | 861 W/m² | - |
| 1777578627 | 30° C | 67% | 1008.1 hPa | 0 mm | - | 909 W/m² | - |
| 1777578322 | 29.44° C | 66% | 1008 hPa | 0 mm | - | 1123 W/m² | - |
| 1777578020 | 29.44° C | 67% | 1008.2 hPa | 0 mm | - | 434 W/m² | - |
| 1777577710 | 28.89° C | 68% | 1008.3 hPa | 0 mm | - | 1093 W/m² | - |
| 1777577406 | 28.33° C | 71% | 1008.4 hPa | 0 mm | - | 1093 W/m² | - |
| 1777577102 | 27.78° C | 71% | 1008.4 hPa | 0 mm | - | 387 W/m² | - |
| 1777576802 | 27.78° C | 72% | 1008.5 hPa | 0 mm | - | 272 W/m² | - |
| 1777576509 | 27.78° C | 72% | 1008.6 hPa | 0 mm | - | 332 W/m² | - |
| 1777576202 | 27.78° C | 72% | 1008.5 hPa | 0 mm | - | 288 W/m² | - |
| 1777575902 | 27.78° C | 73% | 1008.4 hPa | 0 mm | - | 257 W/m² | - |
| 1777575596 | 27.78° C | 72% | 1008.3 hPa | 0 mm | - | 262 W/m² | - |
| 1777575296 | 27.78° C | 73% | 1008.3 hPa | 0 mm | - | 519 W/m² | - |
* Rain latest hour (hover to see other rain measurements)
** Current wind speed in m/s (hover to see current wind gust speed)